This is the latest recevied weather packets stored in our database for station/object MIDVIL-WX. If no packets are shown the sender has not sent any weather packets the latest 10 day(s).
| Time | Temp. | Humidity | Pressure | Rain* | Wind** | Luminosity | Snow |
|---|---|---|---|---|---|---|---|
| 1777930248 | 22.78° C | 34% | 975.1 hPa | 0 mm | - | - | - |
| 1777929325 | 22.78° C | 35% | 974.1 hPa | 0 mm | - | - | - |
| 1777928456 | 22.78° C | 35% | 974.1 hPa | 0 mm | - | - | - |
| 1777927531 | 22.78° C | 36% | 974.8 hPa | 0 mm | - | - | - |
| 1777926641 | 22.78° C | 36% | 974.8 hPa | 0 mm | - | - | - |
| 1777925732 | 22.78° C | 36% | 974.8 hPa | 0 mm | - | - | - |
| 1777924854 | 22.22° C | 41% | 974 hPa | 0 mm | - | - | - |
| 1777923931 | 23.33° C | 37% | 975 hPa | 0 mm | - | - | - |
| 1777923050 | 23.33° C | 37% | 975 hPa | 0 mm | - | - | - |
| 1777922132 | 22.78° C | 37% | 975 hPa | 0 mm | - | - | - |
| 1777921257 | 22.78° C | 37% | 975 hPa | 0 mm | - | - | - |
| 1777920328 | 22.78° C | 26% | 976 hPa | 0 mm | - | - | - |
| 1777919452 | 22.78° C | 30% | 975.7 hPa | 0 mm | - | - | - |
| 1777918532 | 22.78° C | 30% | 975.7 hPa | 0 mm | - | - | - |
| 1777917661 | 22.22° C | 30% | 975.7 hPa | 0 mm | - | - | - |
| 1777916731 | 22.22° C | 39% | 976.6 hPa | 0 mm | - | - | - |
| 1777915847 | 21.67° C | 36% | 976.4 hPa | 0 mm | - | - | - |
| 1777914931 | 21.67° C | 36% | 976.4 hPa | 0 mm | - | - | - |
| 1777914055 | 21.11° C | 35% | 976.2 hPa | 0 mm | - | - | - |
| 1777913131 | 20.56° C | 47% | 976.7 hPa | 0 mm | - | - | - |
| 1777912244 | 20° C | 47% | 976.7 hPa | 0 mm | - | - | - |
| 1777911330 | 19.44° C | 47% | 976.7 hPa | 0 mm | - | - | - |
| 1777910459 | 18.89° C | 47% | 976.7 hPa | 0 mm | - | - | - |
| 1777909530 | 18.89° C | 59% | 977.3 hPa | 0 mm | - | - | - |
| 1777908647 | 18.33° C | 59% | 977.2 hPa | 0 mm | - | - | - |
* Rain latest hour (hover to see other rain measurements)
** Current wind speed in m/s (hover to see current wind gust speed)